"Pseudo-MPEC" for P10OSPW

Created 2019 Jun 20 19:07:18 UT using Find_Orb

Click here for an explanation of pseudo-MPECs

 
 Astrometry: 
     P10OSPW  C2019 06 09)Pe=Gt-DY=O_Z3.uF!65@55pR+7=Wr-7r/2%SECKN]_akZ.FJw@_F51
     P10OSPW  C2019 06 092j7q'.OScAstrometry\k[E#`y]JPt/8?Cemw+R/OCW+/0nFUOk2F51
     P10OSPW  C2019 06 09ij4'ne!WWATW,G.lSqAPredacted;QR\a=*-rZx_#clickCM*k8,F51
     P10OSPW  C2019 06 09#I'WZgYhY2_U=7ayR$)_Q=7here6A4c%ZVe]Yln:ZM(m:BWYd01hF51
     P10OSPW  C2019 06 119J?1a/RPMW0)CGbi;IC_q]'sn:]$KL=OENj/Z@\lPeiwfor'Xm^\F51
     P10OSPW  C2019 06 116CSM$LAdECjr5EbDY)K3E:e'MX?/Hbbu@hp^R;[B1S2V;06x7;f6F51
     P10OSPW  C2019 06 110Qq]c6l1R.`rvV0)KkK6x]m:n]l_RXObcGEL]explanationk76SF51
     P10OSPW  C2019 06 11wbP-s32^I=vp1D-#]_62y3Gqm=aFo#PVPciol2RbCvIY.jE0DY2JF51

Station data:
(F51) Pan-STARRS 1, Haleakala  (N20.707235 W156.255910)  US/Hawaii.
   Observers N. Primak, A. Schultz, S. Watters, J. Thiel, T. Goggia. Measurer
   PS1 Science Consortium. 1.8-m Ritchey-Chrétien + CCD.

Orbital elements:  P10OSPW
   Perihelion 2016 Dec 23.313505 +/- 484 TT =  7:31:26 (JD 2457745.813505)
Epoch 2019 Jun 11.0 TT = JDT 2458645.5   Ju: 0.0651           AutoNEOCP
M  74.11974144 +/- 90               (J2000 ecliptic)
n   0.08238396 +/- 0.132            Peri.  313.40447 +/- 80
a   5.23087392 +/- 5.59             Node   293.04437 +/- 42
e   0.0375363 +/- 0.221             Incl.   33.28210 +/- 9
P  11.96                   H 15.0   G  0.15   U 11.4  SR
q 5.03452627 +/- 1.91    Q 5.42722158 +/- 57
From 8 observations 2019 June 9-11; mean residual 0".10
Residuals in arcseconds: 
190609 F51  .01-  .02+    190609 F51  .01-  .00     190611 F51  .10+  .02+    
190609 F51  .04+  .15+    190611 F51  .06-  .19+    190611 F51  .08+  .01+    
190609 F51  .01-  .17-    190611 F51  .11-  .22-    

Ephemerides (geocentric):
Date (UTC) HH   RA              Dec         delta   r     elong  mag " sig PA
---- -- -- --  -------------   -----------  ------ ------ -----  --- ---- ---
2019 06 20 19  21 47 25.919   +07 01 37.83  4.6650 5.1868 115.7 22.5  334 160
2019 06 20 20  21 47 25.442   +07 01 51.30  4.6645 5.1868 115.7 22.5  337 160
2019 06 20 21  21 47 24.963   +07 02 04.77  4.6640 5.1868 115.7 22.5  340 160
2019 06 20 22  21 47 24.484   +07 02 18.22  4.6634 5.1868 115.8 22.5  343 160
2019 06 20 23  21 47 24.003   +07 02 31.67  4.6629 5.1868 115.8 22.5  345 160
2019 06 21 00  21 47 23.521   +07 02 45.12  4.6624 5.1868 115.9 22.5  348 160
2019 06 21 01  21 47 23.038   +07 02 58.56  4.6618 5.1868 115.9 22.5  351 160
2019 06 21 02  21 47 22.553   +07 03 11.98  4.6613 5.1869 115.9 22.5  354 160
2019 06 21 03  21 47 22.067   +07 03 25.41  4.6608 5.1869 116.0 22.5  357 160
2019 06 21 04  21 47 21.580   +07 03 38.82  4.6603 5.1869 116.0 22.5  360 160
2019 06 21 05  21 47 21.092   +07 03 52.23  4.6597 5.1869 116.0 22.5  363 160
2019 06 21 06  21 47 20.603   +07 04 05.64  4.6592 5.1869 116.1 22.5  366 160
2019 06 21 07  21 47 20.112   +07 04 19.03  4.6587 5.1869 116.1 22.5  369 160
2019 06 21 08  21 47 19.620   +07 04 32.42  4.6582 5.1869 116.2 22.5  372 160
2019 06 21 09  21 47 19.126   +07 04 45.80  4.6576 5.1869 116.2 22.5  375 160
2019 06 21 10  21 47 18.632   +07 04 59.18  4.6571 5.1869 116.2 22.5  378 160
2019 06 21 11  21 47 18.136   +07 05 12.54  4.6566 5.1870 116.3 22.5  381 160
2019 06 21 12  21 47 17.639   +07 05 25.90  4.6561 5.1870 116.3 22.5  384 160
2019 06 21 13  21 47 17.141   +07 05 39.26  4.6555 5.1870 116.3 22.5  387 160
2019 06 21 14  21 47 16.641   +07 05 52.60  4.6550 5.1870 116.4 22.5  390 160
2019 06 21 15  21 47 16.140   +07 06 05.94  4.6545 5.1870 116.4 22.5  393 160
2019 06 21 16  21 47 15.638   +07 06 19.28  4.6540 5.1870 116.4 22.5  396 160
2019 06 21 17  21 47 15.135   +07 06 32.60  4.6534 5.1870 116.5 22.5  399 160
2019 06 21 18  21 47 14.630   +07 06 45.92  4.6529 5.1870 116.5 22.5  402 160
2019 06 21 19  21 47 14.124   +07 06 59.23  4.6524 5.1870 116.6 22.5  405 160
2019 06 21 20  21 47 13.617   +07 07 12.54  4.6519 5.1871 116.6 22.5  409 160
2019 06 21 21  21 47 13.109   +07 07 25.84  4.6514 5.1871 116.6 22.5  412 160
2019 06 21 22  21 47 12.599   +07 07 39.13  4.6508 5.1871 116.7 22.5  415 160
2019 06 21 23  21 47 12.088   +07 07 52.41  4.6503 5.1871 116.7 22.5  418 160
2019 06 22 00  21 47 11.576   +07 08 05.69  4.6498 5.1871 116.7 22.5  421 160
2019 06 22 01  21 47 11.063   +07 08 18.96  4.6493 5.1871 116.8 22.5  424 160
2019 06 22 02  21 47 10.548   +07 08 32.22  4.6487 5.1871 116.8 22.5  428 160
2019 06 22 03  21 47 10.033   +07 08 45.48  4.6482 5.1871 116.9 22.5  431 160
2019 06 22 04  21 47 09.515   +07 08 58.73  4.6477 5.1872 116.9 22.5  434 160
2019 06 22 05  21 47 08.997   +07 09 11.97  4.6472 5.1872 116.9 22.5  437 160
2019 06 22 06  21 47 08.477   +07 09 25.20  4.6467 5.1872 117.0 22.5  441 160
2019 06 22 07  21 47 07.957   +07 09 38.43  4.6461 5.1872 117.0 22.5  444 160
2019 06 22 08  21 47 07.434   +07 09 51.65  4.6456 5.1872 117.0 22.5  447 160
2019 06 22 09  21 47 06.911   +07 10 04.86  4.6451 5.1872 117.1 22.5  450 160
2019 06 22 10  21 47 06.386   +07 10 18.07  4.6446 5.1872 117.1 22.5  454 160
2019 06 22 11  21 47 05.861   +07 10 31.27  4.6441 5.1872 117.1 22.5  457 160
2019 06 22 12  21 47 05.333   +07 10 44.46  4.6435 5.1872 117.2 22.5  460 160
2019 06 22 13  21 47 04.805   +07 10 57.65  4.6430 5.1873 117.2 22.5  464 160
2019 06 22 14  21 47 04.275   +07 11 10.83  4.6425 5.1873 117.3 22.5  467 160
2019 06 22 15  21 47 03.745   +07 11 24.00  4.6420 5.1873 117.3 22.5  470 160
2019 06 22 16  21 47 03.213   +07 11 37.16  4.6415 5.1873 117.3 22.5  474 160
2019 06 22 17  21 47 02.679   +07 11 50.32  4.6409 5.1873 117.4 22.5  477 160
2019 06 22 18  21 47 02.145   +07 12 03.47  4.6404 5.1873 117.4 22.5  481 160